#timestamp,LO_Frequency,Hit,StdDev 
1554937215.5,286046998.9,N
1554937235.3,286046998.3,N
1554937255.1,286046997.0,N
1554937275.9,286046999.2,N
1554937295.7,286047000.5,N
1554937315.5,286046998.8,N
1554937335.4,286046997.3,N
1554937355.2,286046997.2,N
1554937375.1,286046995.0,Y
1554937376.0,286046995.0,P
1554937395.8,286047000.9,N
1554937415.6,286046998.2,N
1554937435.5,286046998.3,N
1554937455.3,286047002.8,N
1554937475.2,286047004.4,N
1554937495.9,286047003.1,N
1554937515.7,286047003.0,N
1554937535.6,286047003.2,N
1554937555.4,286047004.1,N
1554937575.2,286047002.5,N
1554937595.1,286047000.3,N
1554937596.0,286047000.3,N
1554937615.8,286047002.3,N
1554937635.7,286047002.2,N
1554937655.5,286047000.3,N
1554937675.3,286046998.2,N
1554937695.2,286047002.7,N
1554937715.0,286047001.3,N
1554937715.9,286047001.3,N
1554937735.7,286047002.6,N
1554937755.6,286047002.1,N
1554937775.4,286047000.7,N
1554937795.3,286046998.7,N
1554937815.1,286047000.4,N
1554937816.0,286047000.4,N
1554937835.4,286047000.9,N
1554937855.2,286047000.5,N
1554937875.1,286046998.5,N
1554937876.0,286046998.5,N
1554937895.8,286046998.5,N
1554937915.6,286047000.6,N
1554937935.5,286047000.0,N
1554937955.3,286047004.2,N
1554937975.2,286047001.5,N
1554937995.9,286047001.5,N
1554938015.7,286047001.3,N
1554938035.6,286047001.8,N
1554938055.4,286047002.2,N
1554938075.2,286047001.4,N
1554938095.1,286047001.5,N
1554938096.0,286047001.5,N
1554938115.8,286047000.1,N
1554938135.7,286047000.2,N
1554938155.5,286047000.4,N
1554938175.3,286047002.8,N
1554938195.2,286047000.4,N
1554938215.9,286047002.6,N
1554938235.7,286047002.0,N
1554938255.6,286047002.5,N
1554938275.4,286047001.5,N
1554938295.2,286047002.2,N
1554938315.1,286047002.7,N
1554938316.0,286047002.7,N
1554938335.8,286047000.3,N
1554938355.7,286047000.4,N
1554938375.5,286047001.0,N
1554938395.3,286047001.0,N
1554938415.2,286047001.2,N
1554938435.0,286047000.7,N
1554938435.9,286047000.7,N
1554938455.8,286047000.4,N
1554938475.6,286047000.6,N
1554938495.4,286046999.9,N
1554938515.3,286047002.8,Y
1554938535.1,286047000.4,P
1554938555.8,286046998.1,P
1554938575.7,286046998.9,N
1554938595.5,286046998.4,N
1554938615.4,286046999.6,N
1554938635.2,286046996.6,Y
1554938655.0,286046999.0,P
1554938655.9,286046999.0,P
1554938675.8,286046999.3,P
1554938695.6,286046999.5,N
1554938715.4,286046997.4,Y
1554938735.3,286046998.4,P
1554938755.1,286047001.1,N
1554938775.9,286047001.1,N
1554938795.7,286046998.5,N
1554938815.5,286047001.2,N
1554938835.4,286047001.2,N
1554938855.2,286047000.3,N
1554938875.1,286046998.8,N
1554938876.0,286046998.8,N
1554938895.8,286046996.7,N
1554938915.6,286046995.0,Y
1554938935.5,286046997.8,P
1554938955.3,286046997.7,N
1554938975.1,286046998.7,N
1554938995.9,286046999.3,N
1554939015.7,286046998.3,N
1554939035.6,286046999.5,N
1554939055.4,286046997.1,Y
1554939075.2,286046998.9,P
1554939095.1,286046997.1,P
1554939096.0,286046997.1,P
1554939115.8,286046999.6,N
1554939135.7,286046997.0,Y
1554939155.5,286047001.0,P
1554939175.3,286047000.8,N
1554939195.2,286046998.6,N
1554939215.0,286046998.4,N
1554939215.9,286046998.4,N
1554939235.7,286047000.7,N
1554939255.6,286047000.7,N
1554939275.4,286046998.1,N
1554939295.3,286047001.1,N
1554939315.1,286047000.3,N
1554939316.0,286047000.3,N
1554939335.8,286047001.1,N
1554939355.7,286047000.3,N
1554939375.5,286047000.9,N
1554939395.3,286047000.6,N
1554939415.2,286046998.2,N
1554939435.0,286046998.2,N
1554939435.9,286046998.2,N
1554939455.8,286046999.6,N
1554939475.6,286046999.1,N
1554939495.4,286046999.0,N
1554939515.3,286046998.3,N
1554939535.1,286046998.2,N
1554939555.8,286047000.6,N
1554939575.7,286047000.0,N
1554939595.5,286047000.3,N
1554939615.4,286047000.1,N
1554939635.2,286047001.0,N
1554939655.0,286047000.9,N
1554939655.9,286047000.9,N
1554939675.8,286047000.6,N
1554939695.6,286047000.7,N
1554939715.4,286046999.1,N
1554939735.3,286046998.9,N
1554939755.1,286046998.5,N
1554939775.9,286046998.3,N
1554939795.7,286046998.8,N
1554939815.5,286046997.2,N
1554939835.4,286046999.2,N
1554939855.2,286046999.0,N
1554939875.0,286046998.6,N
1554939875.9,286046998.6,N
1554939895.8,286046996.9,N
1554939915.6,286046999.4,N
1554939935.5,286046999.3,N
1554939955.3,286046999.0,N
1554939975.1,286046996.7,Y
1554939995.9,286047000.8,P
1554940015.7,286046998.1,N
1554940035.5,286047000.4,N
1554940055.4,286046999.8,N
1554940075.2,286047000.9,N
1554940095.1,286046998.3,N
1554940096.0,286046998.3,N
1554940115.8,286047001.2,N
1554940135.6,286046998.6,N
1554940155.5,286046999.0,N
1554940175.3,286046998.5,N
1554940195.1,286046998.1,N
1554940215.9,286046999.0,N
1554940235.7,286046997.1,N
1554940255.6,286046996.9,N
1554940275.4,286046997.2,N
1554940295.2,286046996.9,N
1554940315.1,286046997.4,N
1554940316.0,286046997.4,N
1554940335.8,286046997.7,N
1554940355.6,286046995.8,Y
1554940375.5,286046994.9,P
1554940395.3,286046996.9,N
1554940415.2,286046997.1,N
1554940435.9,286046997.5,N
1554940455.7,286046995.9,Y
1554940475.6,286047001.2,P
1554940495.4,286047000.7,N
1554940515.3,286047000.0,N
1554940535.1,286047000.9,N
1554940536.0,286047000.9,N
1554940555.8,286047001.0,N
1554940575.7,286047000.8,N
1554940595.5,286046998.1,N
1554940615.6,286047001.0,N
1554940635.4,286047000.0,N
1554940655.3,286047001.1,N
1554940675.1,286046998.5,N
1554940676.0,286046998.5,N
1554940695.8,286046998.1,N
1554940715.7,286047000.9,N
1554940735.5,286047000.2,N
1554940755.4,286047001.6,N
1554940775.2,286046999.7,N
1554940795.0,286047002.4,N
1554940795.9,286047002.4,N
